Regional Weather Roundup
Issued by NWS

Home | Current Version | Previous Version | Text Only | Print | Product List | Glossary On
Versions: 1 2 3 4 5 6 7 8 9 10 11 12 13 14 15 16 17 18 19 20 21 22 23 24 25 26 27 28 29 30 31 32 33 34 35 36 37 38 39 40 41 42 43 44 45 46 47 48 49 50
000
ASUS43 KFSD 200210
RWRSD

WEATHER ROUNDUP FOR SOUTH DAKOTA
NATIONAL WEATHER SERVICE SIOUX FALLS SD
800 PM CST SUN NOV 19 2017

NOTE: "FAIR" INDICATES FEW OR NO CLOUDS BELOW 12,000 FEET WITH NO
SIGNIFICANT WEATHER AND/OR OBSTRUCTIONS TO VISIBILITY.


SDZ001>005-009-010-012>017-200300-
NORTHWEST AND NORTH CENTRAL SOUTH DAKOTA

CITY           SKY/WX    TMP DP  RH WIND       PRES   REMARKS
BUFFALO          N/A     38  22  52 S5        29.64F
FAITH            N/A     33  24  69 S10       29.74F WCI  25
MOBRIDGE       CLOUDY    34  26  72 SE6       29.72F WCI  29
$$

SDZ012>016-024>037-041>051-057-063-072>074-200300-
SOUTHWEST AND SOUTH CENTRAL SOUTH DAKOTA

CITY           SKY/WX    TMP DP  RH WIND       PRES   REMARKS
RAPID CTY ARPT CLOUDY    35  18  49 W5        29.74F
PIERRE         CLOUDY    34  23  64 E5        29.77F WCI  30
CUSTER         CLOUDY    38  14  37 W7        29.81S
ELLSWORTH AFB  CLOUDY    34  19  53 W7        29.73F WCI  28
PHILIP         CLOUDY    41  23  48 SE3       29.75F
PINE RIDGE     CLEAR     30  18  60 W3        29.81F
SPEARFISH      FAIR      45  16  31 W8        29.76S
WINNER         FAIR      46  22  38 S7        29.80F
$$

SDZ004>011-016>023-039-040-200300-
NORTHEAST SOUTH DAKOTA

CITY           SKY/WX    TMP DP  RH WIND       PRES   REMARKS
ABERDEEN       CLOUDY    32  22  66 S7        29.78F WCI  26
WATERTOWN      CLOUDY    35  26  69 S10       29.79F WCI  27
BROOKINGS      CLOUDY    37  24  59 S8        29.82F
SISSETON         N/A     37  24  59 W7        29.76F
$$

SDZ017-020-022-023-036>040-048>070-200300-
SOUTHEAST SOUTH DAKOTA

CITY           SKY/WX    TMP DP  RH WIND       PRES   REMARKS
SIOUX FALLS    CLOUDY    36  26  67 S5        29.84F
HURON          CLOUDY    37  24  59 S5        29.80F
CHAMBERLAIN    CLOUDY    38  26  60 CALM      29.80F
MITCHELL       CLOUDY    41  25  53 S7        29.82F
YANKTON        CLOUDY    41  24  51 SW5       29.85F
$$

ABBREVIATIONS USED IN REMARKS
   TC - TEMPERATURE IN CELSIUS
  WCI - WIND CHILL INDEX
   HX - HEAT INDEX
  VSB - VISIBILITY





USA.gov is the U.S. government's official web portal to all federal, state and local government web resources and services.